| time (UTC) | temp C | wind direction | speed KPH | gust KPH | rain 1hr cm | rain 24hr cm | rain mn cm | humidity % | barometer mb |
| 20260508231503 | 18 | 148 | 1.6 | 8.0 | 0.00 | 0.00 | 0.00 | 50 | 1008.2 |
| 20260508230004 | 19 | 251 | 3.2 | 9.7 | 0.00 | 0.00 | 0.00 | 49 | 1008.1 |
| 20260508221502 | 20 | 244 | 4.8 | 16.1 | 0.00 | 0.00 | 0.00 | 46 | 1008.1 |
| 20260508220005 | 20 | 255 | 4.8 | 14.5 | 0.00 | 0.00 | 0.00 | 46 | 1008.0 |
| 20260508214502 | 20 | 246 | 3.2 | 8.0 | 0.00 | 0.00 | 0.00 | 46 | 1008.0 |
| 20260508213002 | 20 | 235 | 3.2 | 9.7 | 0.00 | 0.00 | 0.00 | 46 | 1008.2 |
| 20260508211502 | 20 | 266 | 4.8 | 11.3 | 0.00 | 0.00 | 0.00 | 46 | 1008.4 |
| 20260508210003 | 20 | 242 | 3.2 | 12.9 | 0.00 | 0.00 | 0.00 | 46 | 1008.5 |
| 20260508203002 | 20 | 254 | 3.2 | 16.1 | 0.00 | 0.00 | 0.00 | 45 | 1009.0 |
| 20260508201502 | 20 | 249 | 3.2 | 11.3 | 0.00 | 0.00 | 0.00 | 46 | 1009.2 |
| 20260508200006 | 20 | 238 | 6.4 | 16.1 | 0.00 | 0.00 | 0.00 | 43 | 1009.2 |
| 20260508194502 | 20 | 226 | 6.4 | 17.7 | 0.00 | 0.00 | 0.00 | 44 | 1009.3 |
| 20260508191504 | 21 | 265 | 4.8 | 12.9 | 0.00 | 0.00 | 0.00 | 42 | 1009.6 |
| 20260508191502 | 21 | 265 | 6.4 | 12.9 | 0.00 | 0.00 | 0.00 | 42 | 1009.6 |
| 20260508190006 | 21 | 263 | 3.2 | 22.5 | 0.00 | 0.00 | 0.00 | 43 | 1009.9 |
| 20260508190004 | 21 | 263 | 6.4 | 22.5 | 0.00 | 0.00 | 0.00 | 43 | 1009.9 |
| 20260508184502 | 21 | 262 | 4.8 | 17.7 | 0.00 | 0.00 | 0.00 | 46 | 1010.2 |
| 20260508183002 | 20 | 258 | 4.8 | 12.9 | 0.00 | 0.00 | 0.00 | 45 | 1010.4 |
| 20260508181502 | 21 | 270 | 6.4 | 22.5 | 0.00 | 0.00 | 0.00 | 42 | 1010.7 |
| 20260508180005 | 20 | 133 | 6.4 | 20.9 | 0.00 | 0.00 | 0.00 | 42 | 1010.9 |
| 20260508174502 | 20 | 262 | 6.4 | 16.1 | 0.00 | 0.00 | 0.00 | 46 | 1011.2 |
| 20260508173001 | 20 | 321 | 6.4 | 17.7 | 0.00 | 0.00 | 0.00 | 45 | 1011.6 |
| 20260508171502 | 20 | 203 | 4.8 | 14.5 | 0.00 | 0.00 | 0.00 | 47 | 1011.7 |
| 20260508170007 | 20 | 248 | 4.8 | 17.7 | 0.00 | 0.00 | 0.00 | 48 | 1012.1 |
| 20260508170005 | 20 | 248 | 6.4 | 17.7 | 0.00 | 0.00 | 0.00 | 48 | 1012.0 |
| 20260508164502 | 19 | 314 | 8.0 | 16.1 | 0.00 | 0.00 | 0.00 | 49 | 1012.3 |
| 20260508163003 | 18 | 257 | 6.4 | 22.5 | 0.00 | 0.00 | 0.00 | 51 | 1012.5 |
| 20260508161502 | 18 | 258 | 8.0 | 20.9 | 0.00 | 0.00 | 0.00 | 50 | 1012.7 |
| 20260508160005 | 18 | 181 | 6.4 | 14.5 | 0.00 | 0.00 | 0.00 | 52 | 1012.9 |
| 20260508160003 | 18 | 181 | 4.8 | 14.5 | 0.00 | 0.00 | 0.00 | 52 | 1013.0 |
| 20260508154501 | 18 | 253 | 6.4 | 20.9 | 0.00 | 0.00 | 0.00 | 53 | 1013.0 |
| 20260508153001 | 17 | 252 | 6.4 | 17.7 | 0.00 | 0.00 | 0.00 | 51 | 1013.2 |
| 20260508150006 | 16 | 249 | 8.0 | 16.1 | 0.00 | 0.00 | 0.00 | 50 | 1013.5 |
| 20260508144502 | 16 | 100 | 4.8 | 9.7 | 0.00 | 0.00 | 0.00 | 53 | 1013.3 |
| 20260508143002 | 15 | 248 | 4.8 | 19.3 | 0.00 | 0.00 | 0.00 | 55 | 1013.7 |
| 20260508141502 | 15 | 259 | 3.2 | 11.3 | 0.00 | 0.00 | 0.00 | 56 | 1013.8 |
| 20260508140007 | 14 | 263 | 4.8 | 9.7 | 0.00 | 0.00 | 0.00 | 59 | 1013.9 |
| 20260508140003 | 14 | 263 | 3.2 | 9.7 | 0.00 | 0.00 | 0.00 | 59 | 1014.0 |
| 20260508133002 | 13 | 240 | 1.6 | 9.7 | 0.00 | 0.00 | 0.00 | 62 | 1014.0 |
| 20260508131502 | 12 | 251 | 1.6 | 6.4 | 0.00 | 0.00 | 0.00 | 64 | 1013.9 |
| 20260508130004 | 11 | 244 | 1.6 | 6.4 | 0.00 | 0.00 | 0.00 | 68 | 1013.7 |
| 20260508123003 | 8 | 198 | 1.6 | 3.2 | 0.00 | 0.00 | 0.00 | 74 | 1013.8 |
| 20260508121502 | 8 | 196 | 1.6 | 4.8 | 0.00 | 0.00 | 0.00 | 74 | 1013.8 |
| 20260508120004 | 8 | 222 | 1.6 | 4.8 | 0.00 | 0.00 | 0.00 | 75 | 1013.7 |
| 20260508120002 | 8 | 222 | 0.0 | 4.8 | 0.00 | 0.00 | 0.00 | 75 | 1014.0 |
| 20260508114501 | 7 | 155 | 0.0 | 1.6 | 0.00 | 0.00 | 0.00 | 76 | 1013.6 |
| 20260508113002 | 7 | 124 | 1.6 | 3.2 | 0.00 | 0.00 | 0.00 | 76 | 1013.4 |
| 20260508111502 | 7 | 200 | 1.6 | 4.8 | 0.00 | 0.00 | 0.00 | 76 | 1013.4 |
| 20260508110004 | 7 | 157 | 0.0 | 4.8 | 0.00 | 0.00 | 0.00 | 76 | 1013.3 |
| 20260508104501 | 7 | 141 | 1.6 | 4.8 | 0.00 | 0.00 | 0.00 | 76 | 1013.2 |
| 20260508101502 | 6 | 159 | 0.0 | 3.2 | 0.00 | 0.00 | 0.00 | 79 | 1013.1 |
| 20260508100005 | 6 | 297 | 0.0 | 1.6 | 0.00 | 0.00 | 0.00 | 83 | 1013.1 |
| 20260508094502 | 6 | 297 | 0.0 | 1.6 | 0.00 | 0.00 | 0.00 | 84 | 1013.0 |
| 20260508093001 | 5 | 297 | 0.0 | 0.0 | 0.00 | 0.00 | 0.00 | 84 | 1013.0 |
| 20260508091502 | 5 | 297 | 0.0 | 0.0 | 0.00 | 0.00 | 0.00 | 84 | 1013.1 |
| 20260508090004 | 5 | 297 | 0.0 | 1.6 | 0.00 | 0.00 | 0.00 | 84 | 1013.0 |
| 20260508090002 | 5 | 297 | 0.0 | 1.6 | 0.00 | 0.00 | 0.00 | 84 | 1013.3 |
| 20260508084501 | 5 | 297 | 0.0 | 1.6 | 0.00 | 0.00 | 0.00 | 83 | 1013.0 |
| 20260508083003 | 5 | 297 | 0.0 | 1.6 | 0.00 | 0.00 | 0.00 | 82 | 1012.8 |
| 20260508081502 | 5 | 297 | 0.0 | 1.6 | 0.00 | 0.00 | 0.00 | 82 | 1012.9 |
| 20260508080004 | 6 | 297 | 0.0 | 1.6 | 0.00 | 0.00 | 0.00 | 81 | 1013.0 |
| 20260508080002 | 6 | 297 | 0.0 | 1.6 | 0.00 | 0.00 | 0.00 | 81 | 1013.2 |
| 20260508074501 | 6 | 297 | 0.0 | 0.0 | 0.00 | 0.00 | 0.00 | 80 | 1012.8 |
| 20260508073001 | 6 | 120 | 0.0 | 1.6 | 0.00 | 0.00 | 0.00 | 81 | 1012.8 |
| 20260508071502 | 6 | 120 | 0.0 | 1.6 | 0.00 | 0.00 | 0.00 | 79 | 1012.8 |
| 20260508070005 | 6 | 110 | 0.0 | 1.6 | 0.00 | 0.00 | 0.00 | 82 | 1013.2 |
| 20260508064501 | 6 | 109 | 0.0 | 0.0 | 0.00 | 0.00 | 0.00 | 82 | 1013.4 |
| 20260508061501 | 6 | 141 | 0.0 | 0.0 | 0.00 | 0.00 | 0.00 | 80 | 1013.5 |
| 20260508060003 | 6 | 141 | 0.0 | 0.0 | 0.00 | 0.00 | 0.00 | 80 | 1013.7 |
| 20260508054502 | 6 | 141 | 0.0 | 0.0 | 0.00 | 0.00 | 0.00 | 81 | 1013.7 |
| 20260508053001 | 6 | 141 | 0.0 | 0.0 | 0.00 | 0.00 | 0.00 | 82 | 1013.5 |
| 20260508051501 | 6 | 141 | 0.0 | 0.0 | 0.00 | 0.00 | 0.00 | 81 | 1013.4 |
| 20260508050007 | 6 | 141 | 0.0 | 0.0 | 0.00 | 0.00 | 0.00 | 81 | 1013.7 |
| 20260508044502 | 6 | 141 | 0.0 | 0.0 | 0.00 | 0.00 | 0.00 | 78 | 1013.5 |
| 20260508041504 | 6 | 141 | 0.0 | 0.0 | 0.00 | 0.00 | 0.00 | 79 | 1013.4 |
| 20260508041502 | 6 | 141 | 0.0 | 0.0 | 0.00 | 0.00 | 0.00 | 79 | 1013.2 |
| 20260508040015 | 6 | 141 | 0.0 | 0.0 | 0.00 | 0.00 | 0.00 | 80 | 1013.4 |
| 20260508040006 | 6 | 141 | 0.0 | 0.0 | 0.00 | 0.00 | 0.00 | 80 | 1013.2 |
| 20260508034502 | 7 | 141 | 0.0 | 0.0 | 0.00 | 0.00 | 0.00 | 79 | 1013.5 |
| 20260508033002 | 7 | 141 | 0.0 | 1.6 | 0.00 | 0.00 | 0.00 | 77 | 1013.6 |
| 20260508031502 | 7 | 141 | 0.0 | 0.0 | 0.00 | 0.00 | 0.00 | 76 | 1013.4 |
| 20260508030004 | 7 | 141 | 0.0 | 0.0 | 0.00 | 0.00 | 0.00 | 77 | 1013.7 |
| 20260508024503 | 7 | 141 | 0.0 | 1.6 | 0.00 | 0.00 | 0.00 | 74 | 1013.3 |
| 20260508024501 | 7 | 141 | 0.0 | 1.6 | 0.00 | 0.00 | 0.00 | 74 | 1013.5 |
| 20260508023002 | 8 | 208 | 0.0 | 0.0 | 0.00 | 0.00 | 0.00 | 74 | 1013.4 |
| 20260508021501 | 8 | 208 | 0.0 | 1.6 | 0.00 | 0.00 | 0.00 | 72 | 1013.4 |
| 20260508020005 | 8 | 219 | 0.0 | 0.0 | 0.00 | 0.00 | 0.00 | 69 | 1013.3 |
| 20260508020003 | 8 | 219 | 0.0 | 0.0 | 0.00 | 0.00 | 0.00 | 69 | 1013.5 |
| 20260508014502 | 9 | 219 | 0.0 | 0.0 | 0.00 | 0.00 | 0.00 | 66 | 1013.5 |
| 20260508013002 | 9 | 243 | 0.0 | 0.0 | 0.00 | 0.00 | 0.00 | 63 | 1013.3 |
| 20260508013000 | 9 | 243 | 0.0 | 0.0 | 0.00 | 0.00 | 0.00 | 63 | 1013.5 |
| 20260508011503 | 10 | 243 | 0.0 | 0.0 | 0.00 | 0.00 | 0.00 | 60 | 1013.0 |
| 20260508010005 | 11 | 243 | 0.0 | 0.0 | 0.00 | 0.00 | 0.00 | 56 | 1013.0 |
| 20260508010003 | 11 | 243 | 0.0 | 0.0 | 0.00 | 0.00 | 0.00 | 56 | 1013.2 |
| 20260508004502 | 11 | 243 | 0.0 | 1.6 | 0.00 | 0.00 | 0.00 | 52 | 1013.0 |
| 20260508004500 | 11 | 243 | 0.0 | 1.6 | 0.00 | 0.00 | 0.00 | 52 | 1013.2 |
| 20260508003000 | 12 | 243 | 0.0 | 1.6 | 0.00 | 0.00 | 0.00 | 49 | 1013.1 |
| 20260508001502 | 13 | 243 | 0.0 | 3.2 | 0.00 | 0.00 | 0.00 | 48 | 1012.8 |
| 20260508001500 | 13 | 243 | 0.0 | 3.2 | 0.00 | 0.00 | 0.00 | 48 | 1013.0 |
| 20260508000002 | 15 | 266 | 0.0 | 1.6 | 0.00 | 0.00 | 0.00 | 44 | 1012.7 |
| 20260507234500 | 16 | 287 | 0.0 | 4.8 | 0.00 | 0.00 | 0.00 | 39 | 1012.6 |
| 20260507233002 | 16 | 83 | 0.0 | 3.2 | 0.00 | 0.00 | 0.00 | 42 | 1012.4 |